owner,sensor,date,latitude,longitude,vertical_datum,wind_speed,wind_to_direction,wind_speed_of_gust,qcFlag 
DISL,ioos:station:DISL:BSCA:1,2015-10-01T00:00:00Z,30.3288,-87.8293,0.0,3.8,5.0,99.0,'11111222,11111222,11144222' 
DISL,ioos:station:DISL:BSCA:1,2015-10-01T00:30:00Z,30.3288,-87.8293,0.0,5.0,359.0,99.0,'11111222,11111222,11144222' 
DISL,ioos:station:DISL:BSCA:1,2015-10-01T01:00:00Z,30.3288,-87.8293,0.0,4.8,8.0,99.0,'11111222,11111222,11144222' 
DISL,ioos:station:DISL:BSCA:1,2015-10-01T01:30:00Z,30.3288,-87.8293,0.0,4.6,13.0,99.0,'11111222,11111222,11144222' 
DISL,ioos:station:DISL:BSCA:1,2015-10-01T02:00:00Z,30.3288,-87.8293,0.0,5.0,0.0,99.0,'11111222,11111222,11144222' 
DISL,ioos:station:DISL:BSCA:1,2015-10-01T02:30:00Z,30.3288,-87.8293,0.0,5.3,359.0,99.0,'11111222,11111222,11144222' 
DISL,ioos:station:DISL:BSCA:1,2015-10-01T03:00:00Z,30.3288,-87.8293,0.0,5.5,4.0,99.0,'11111222,11111222,11144222' 
DISL,ioos:station:DISL:BSCA:1,2015-10-01T03:30:00Z,30.3288,-87.8293,0.0,6.3,7.0,99.0,'11111222,11111222,11144222' 
DISL,ioos:station:DISL:BSCA:1,2015-10-01T04:00:00Z,30.3288,-87.8293,0.0,6.7,15.0,99.0,'11111222,11111222,11144222' 
DISL,ioos:station:DISL:BSCA:1,2015-10-01T04:30:00Z,30.3288,-87.8293,0.0,8.1,11.0,99.0,'11111222,11111222,11144222' 
DISL,ioos:station:DISL:BSCA:1,2015-10-01T05:00:00Z,30.3288,-87.8293,0.0,5.7,24.0,99.0,'11111222,11111222,11144222' 
DISL,ioos:station:DISL:BSCA:1,2015-10-01T05:30:00Z,30.3288,-87.8293,0.0,5.3,28.0,99.0,'11111222,11111222,11144222' 
DISL,ioos:station:DISL:BSCA:1,2015-10-01T06:00:00Z,30.3288,-87.8293,0.0,6.0,18.0,99.0,'11111222,11111222,11144222' 
DISL,ioos:station:DISL:BSCA:1,2015-10-01T06:30:00Z,30.3288,-87.8293,0.0,6.7,17.0,99.0,'11111222,11111222,11144222' 
DISL,ioos:station:DISL:BSCA:1,2015-10-01T07:00:00Z,30.3288,-87.8293,0.0,7.0,14.0,99.0,'11111222,11111222,11144222' 
DISL,ioos:station:DISL:BSCA:1,2015-10-01T07:30:00Z,30.3288,-87.8293,0.0,7.1,15.0,99.0,'11111222,11111222,11144222' 
DISL,ioos:station:DISL:BSCA:1,2015-10-01T08:00:00Z,30.3288,-87.8293,0.0,7.0,13.0,99.0,'11111222,11111222,11144222' 
DISL,ioos:station:DISL:BSCA:1,2015-10-01T08:30:00Z,30.3288,-87.8293,0.0,7.8,8.0,99.0,'11111222,11111222,11144222' 
DISL,ioos:station:DISL:BSCA:1,2015-10-01T09:00:00Z,30.3288,-87.8293,0.0,8.1,6.0,99.0,'11111222,11111222,11144222' 
DISL,ioos:station:DISL:BSCA:1,2015-10-01T09:30:00Z,30.3288,-87.8293,0.0,8.6,13.0,99.0,'11111222,11111222,11144222' 
DISL,ioos:station:DISL:BSCA:1,2015-10-01T10:00:00Z,30.3288,-87.8293,0.0,8.0,18.0,99.0,'11111222,11111222,11144222' 
DISL,ioos:station:DISL:BSCA:1,2015-10-01T10:30:00Z,30.3288,-87.8293,0.0,8.2,15.0,99.0,'11111222,11111222,11144222' 
DISL,ioos:station:DISL:BSCA:1,2015-10-01T11:00:00Z,30.3288,-87.8293,0.0,7.0,16.0,99.0,'11111222,11111222,11144222' 
DISL,ioos:station:DISL:BSCA:1,2015-10-01T11:30:00Z,30.3288,-87.8293,0.0,7.2,12.0,99.0,'11111222,11111222,11144222' 
DISL,ioos:station:DISL:BSCA:1,2015-10-01T12:00:00Z,30.3288,-87.8293,0.0,6.5,12.0,99.0,'11111222,11111222,11144222' 
DISL,ioos:station:DISL:BSCA:1,2015-10-01T12:30:00Z,30.3288,-87.8293,0.0,7.1,6.0,99.0,'11111222,11111222,11144222' 
DISL,ioos:station:DISL:BSCA:1,2015-10-01T13:00:00Z,30.3288,-87.8293,0.0,6.3,6.0,99.0,'11111222,11111222,11144222' 
DISL,ioos:station:DISL:BSCA:1,2015-10-01T13:30:00Z,30.3288,-87.8293,0.0,7.6,3.0,99.0,'11111222,11111222,11144222' 
DISL,ioos:station:DISL:BSCA:1,2015-10-01T14:00:00Z,30.3288,-87.8293,0.0,8.0,6.0,99.0,'11111222,11111222,11144222' 
DISL,ioos:station:DISL:BSCA:1,2015-10-01T14:30:00Z,30.3288,-87.8293,0.0,7.9,12.0,99.0,'11111222,11111222,11144222' 
DISL,ioos:station:DISL:BSCA:1,2015-10-01T15:00:00Z,30.3288,-87.8293,0.0,7.6,9.0,99.0,'11111222,11111222,11144222' 
DISL,ioos:station:DISL:BSCA:1,2015-10-01T15:30:00Z,30.3288,-87.8293,0.0,8.3,359.0,99.0,'11111222,11111222,11144222' 
DISL,ioos:station:DISL:BSCA:1,2015-10-01T16:00:00Z,30.3288,-87.8293,0.0,8.7,355.0,99.0,'11111222,11111222,11144222' 
DISL,ioos:station:DISL:BSCA:1,2015-10-01T16:30:00Z,30.3288,-87.8293,0.0,7.4,7.0,99.0,'11111222,11111222,11144222' 
DISL,ioos:station:DISL:BSCA:1,2015-10-01T17:00:00Z,30.3288,-87.8293,0.0,5.5,10.0,99.0,'11111222,11111222,11144222' 
DISL,ioos:station:DISL:BSCA:1,2015-10-01T17:30:00Z,30.3288,-87.8293,0.0,8.3,6.0,99.0,'11111222,11111222,11144222' 
DISL,ioos:station:DISL:BSCA:1,2015-10-01T18:00:00Z,30.3288,-87.8293,0.0,7.7,357.0,99.0,'11111222,11111222,11144222' 
DISL,ioos:station:DISL:BSCA:1,2015-10-01T18:30:00Z,30.3288,-87.8293,0.0,8.1,348.0,99.0,'11111222,11111222,11144222' 
DISL,ioos:station:DISL:BSCA:1,2015-10-01T19:00:00Z,30.3288,-87.8293,0.0,8.2,2.0,99.0,'11111222,11111222,11144222' 
DISL,ioos:station:DISL:BSCA:1,2015-10-01T19:30:00Z,30.3288,-87.8293,0.0,9.2,354.0,99.0,'11111222,11111222,11144222' 
DISL,ioos:station:DISL:BSCA:1,2015-10-01T20:00:00Z,30.3288,-87.8293,0.0,9.7,357.0,99.0,'11111222,11111222,11144222' 
DISL,ioos:station:DISL:BSCA:1,2015-10-01T20:30:00Z,30.3288,-87.8293,0.0,9.5,9.0,99.0,'11111222,11111222,11144222' 
DISL,ioos:station:DISL:BSCA:1,2015-10-01T21:00:00Z,30.3288,-87.8293,0.0,8.6,11.0,99.0,'11111222,11111222,11144222' 
DISL,ioos:station:DISL:BSCA:1,2015-10-01T21:30:00Z,30.3288,-87.8293,0.0,8.2,8.0,99.0,'11111222,11111222,11144222' 
DISL,ioos:station:DISL:BSCA:1,2015-10-01T22:00:00Z,30.3288,-87.8293,0.0,9.5,4.0,99.0,'11111222,11111222,11144222' 
DISL,ioos:station:DISL:BSCA:1,2015-10-01T22:30:00Z,30.3288,-87.8293,0.0,8.7,5.0,99.0,'11111222,11111222,11144222' 
DISL,ioos:station:DISL:BSCA:1,2015-10-01T23:00:00Z,30.3288,-87.8293,0.0,7.1,8.0,99.0,'11111222,11111222,11144222' 
DISL,ioos:station:DISL:BSCA:1,2015-10-01T23:30:00Z,30.3288,-87.8293,0.0,8.2,8.0,99.0,'11111222,11111222,11144222' 
DISL,ioos:station:DISL:BSCA:1,2015-10-02T00:00:00Z,30.3288,-87.8293,0.0,7.0,13.0,99.0,'11111222,11111222,11144222' 
DISL,ioos:station:DISL:BSCA:1,2015-10-02T00:30:00Z,30.3288,-87.8293,0.0,7.7,7.0,99.0,'11111222,11111222,11144222' 
DISL,ioos:station:DISL:BSCA:1,2015-10-02T01:00:00Z,30.3288,-87.8293,0.0,7.4,7.0,99.0,'11111222,11111222,11144222' 
DISL,ioos:station:DISL:BSCA:1,2015-10-02T01:30:00Z,30.3288,-87.8293,0.0,7.5,13.0,99.0,'11111222,11111222,11144222' 
DISL,ioos:station:DISL:BSCA:1,2015-10-02T02:00:00Z,30.3288,-87.8293,0.0,7.8,9.0,99.0,'11111222,11111222,11144222' 
DISL,ioos:station:DISL:BSCA:1,2015-10-02T02:30:00Z,30.3288,-87.8293,0.0,8.1,13.0,99.0,'11111222,11111222,11144222' 
DISL,ioos:station:DISL:BSCA:1,2015-10-02T03:00:00Z,30.3288,-87.8293,0.0,9.1,12.0,99.0,'11111222,11111222,11144222' 
DISL,ioos:station:DISL:BSCA:1,2015-10-02T03:30:00Z,30.3288,-87.8293,0.0,7.0,10.0,99.0,'11111222,11111222,11144222' 
DISL,ioos:station:DISL:BSCA:1,2015-10-02T04:00:00Z,30.3288,-87.8293,0.0,7.4,13.0,99.0,'11111222,11111222,11144222' 
DISL,ioos:station:DISL:BSCA:1,2015-10-02T04:30:00Z,30.3288,-87.8293,0.0,7.1,15.0,99.0,'11111222,11111222,11144222' 
DISL,ioos:station:DISL:BSCA:1,2015-10-02T05:00:00Z,30.3288,-87.8293,0.0,6.7,10.0,99.0,'11111222,11111222,11144222' 
DISL,ioos:station:DISL:BSCA:1,2015-10-02T05:30:00Z,30.3288,-87.8293,0.0,7.6,16.0,99.0,'11111222,11111222,11144222' 
DISL,ioos:station:DISL:BSCA:1,2015-10-02T06:00:00Z,30.3288,-87.8293,0.0,6.0,16.0,99.0,'11111222,11111222,11144222' 
DISL,ioos:station:DISL:BSCA:1,2015-10-02T06:30:00Z,30.3288,-87.8293,0.0,5.6,7.0,99.0,'11111222,11111222,11144222' 
DISL,ioos:station:DISL:BSCA:1,2015-10-02T07:00:00Z,30.3288,-87.8293,0.0,5.9,9.0,99.0,'11111222,11111222,11144222' 
DISL,ioos:station:DISL:BSCA:1,2015-10-02T07:30:00Z,30.3288,-87.8293,0.0,5.8,9.0,99.0,'11111222,11111222,11144222' 
DISL,ioos:station:DISL:BSCA:1,2015-10-02T08:00:00Z,30.3288,-87.8293,0.0,5.9,10.0,99.0,'11111222,11111222,11144222' 
DISL,ioos:station:DISL:BSCA:1,2015-10-02T08:30:00Z,30.3288,-87.8293,0.0,5.9,9.0,99.0,'11111222,11111222,11144222' 
DISL,ioos:station:DISL:BSCA:1,2015-10-02T09:00:00Z,30.3288,-87.8293,0.0,6.0,16.0,99.0,'11111222,11111222,11144222' 
DISL,ioos:station:DISL:BSCA:1,2015-10-02T09:30:00Z,30.3288,-87.8293,0.0,6.4,28.0,99.0,'11111222,11111222,11144222' 
DISL,ioos:station:DISL:BSCA:1,2015-10-02T10:00:00Z,30.3288,-87.8293,0.0,6.5,18.0,99.0,'11111222,11111222,11144222' 
DISL,ioos:station:DISL:BSCA:1,2015-10-02T10:30:00Z,30.3288,-87.8293,0.0,7.3,10.0,99.0,'11111222,11111222,11144222' 
DISL,ioos:station:DISL:BSCA:1,2015-10-02T11:00:00Z,30.3288,-87.8293,0.0,7.0,13.0,99.0,'11111222,11111222,11144222' 
DISL,ioos:station:DISL:BSCA:1,2015-10-02T11:30:00Z,30.3288,-87.8293,0.0,8.9,11.0,99.0,'11111222,11111222,11144222' 
DISL,ioos:station:DISL:BSCA:1,2015-10-02T12:00:00Z,30.3288,-87.8293,0.0,8.2,10.0,99.0,'11111222,11111222,11144222' 
DISL,ioos:station:DISL:BSCA:1,2015-10-02T12:30:00Z,30.3288,-87.8293,0.0,7.0,8.0,99.0,'11111222,11111222,11144222' 
DISL,ioos:station:DISL:BSCA:1,2015-10-02T13:00:00Z,30.3288,-87.8293,0.0,7.9,2.0,99.0,'11111222,11111222,11144222' 
DISL,ioos:station:DISL:BSCA:1,2015-10-02T13:30:00Z,30.3288,-87.8293,0.0,7.4,7.0,99.0,'11111222,11111222,11144222' 
DISL,ioos:station:DISL:BSCA:1,2015-10-02T14:00:00Z,30.3288,-87.8293,0.0,7.6,358.0,99.0,'11111222,11111222,11144222' 
DISL,ioos:station:DISL:BSCA:1,2015-10-02T14:30:00Z,30.3288,-87.8293,0.0,8.6,6.0,99.0,'11111222,11111222,11144222' 
DISL,ioos:station:DISL:BSCA:1,2015-10-02T15:00:00Z,30.3288,-87.8293,0.0,8.7,15.0,99.0,'11111222,11111222,11144222' 
DISL,ioos:station:DISL:BSCA:1,2015-10-02T15:30:00Z,30.3288,-87.8293,0.0,8.2,11.0,99.0,'11111222,11111222,11144222' 
DISL,ioos:station:DISL:BSCA:1,2015-10-02T16:00:00Z,30.3288,-87.8293,0.0,7.7,12.0,99.0,'11111222,11111222,11144222' 
DISL,ioos:station:DISL:BSCA:1,2015-10-02T16:30:00Z,30.3288,-87.8293,0.0,6.4,9.0,99.0,'11111222,11111222,11144222' 
DISL,ioos:station:DISL:BSCA:1,2015-10-02T17:00:00Z,30.3288,-87.8293,0.0,7.5,3.0,99.0,'11111222,11111222,11144222' 
DISL,ioos:station:DISL:BSCA:1,2015-10-02T17:30:00Z,30.3288,-87.8293,0.0,6.7,6.0,99.0,'11111222,11111222,11144222' 
DISL,ioos:station:DISL:BSCA:1,2015-10-02T18:00:00Z,30.3288,-87.8293,0.0,7.2,4.0,99.0,'11111222,11111222,11144222' 
DISL,ioos:station:DISL:BSCA:1,2015-10-02T18:30:00Z,30.3288,-87.8293,0.0,7.8,348.0,99.0,'11111222,11111222,11144222' 
DISL,ioos:station:DISL:BSCA:1,2015-10-02T19:00:00Z,30.3288,-87.8293,0.0,8.0,5.0,99.0,'11111222,11111222,11144222' 
DISL,ioos:station:DISL:BSCA:1,2015-10-02T19:30:00Z,30.3288,-87.8293,0.0,8.8,353.0,99.0,'11111222,11111222,11144222' 
DISL,ioos:station:DISL:BSCA:1,2015-10-02T20:00:00Z,30.3288,-87.8293,0.0,9.6,1.0,99.0,'11111222,11111222,11144222' 
DISL,ioos:station:DISL:BSCA:1,2015-10-02T20:30:00Z,30.3288,-87.8293,0.0,9.0,10.0,99.0,'11111222,11111222,11144222' 
DISL,ioos:station:DISL:BSCA:1,2015-10-02T21:00:00Z,30.3288,-87.8293,0.0,9.5,4.0,99.0,'11111222,11111222,11144222' 
DISL,ioos:station:DISL:BSCA:1,2015-10-02T21:30:00Z,30.3288,-87.8293,0.0,9.1,359.0,99.0,'11111222,11111222,11144222' 
DISL,ioos:station:DISL:BSCA:1,2015-10-02T22:00:00Z,30.3288,-87.8293,0.0,8.4,11.0,99.0,'11111222,11111222,11144222' 
DISL,ioos:station:DISL:BSCA:1,2015-10-02T22:30:00Z,30.3288,-87.8293,0.0,7.6,8.0,99.0,'11111222,11111222,11144222' 
DISL,ioos:station:DISL:BSCA:1,2015-10-02T23:00:00Z,30.3288,-87.8293,0.0,8.4,1.0,99.0,'11111222,11111222,11144222' 
DISL,ioos:station:DISL:BSCA:1,2015-10-02T23:30:00Z,30.3288,-87.8293,0.0,9.0,6.0,99.0,'11111222,11111222,11144222' 
DISL,ioos:station:DISL:BSCA:1,2015-10-03T00:00:00Z,30.3288,-87.8293,0.0,8.7,11.0,99.0,'11111222,11111222,11144222' 
DISL,ioos:station:DISL:BSCA:1,2015-10-03T00:30:00Z,30.3288,-87.8293,0.0,8.6,13.0,99.0,'11111222,11111222,11144222' 
DISL,ioos:station:DISL:BSCA:1,2015-10-03T01:00:00Z,30.3288,-87.8293,0.0,9.3,3.0,99.0,'11111222,11111222,11144222' 
DISL,ioos:station:DISL:BSCA:1,2015-10-03T01:30:00Z,30.3288,-87.8293,0.0,8.0,4.0,99.0,'11111222,11111222,11144222' 
DISL,ioos:station:DISL:BSCA:1,2015-10-03T02:00:00Z,30.3288,-87.8293,0.0,9.5,2.0,99.0,'11111222,11111222,11144222' 
DISL,ioos:station:DISL:BSCA:1,2015-10-03T02:30:00Z,30.3288,-87.8293,0.0,9.0,360.0,99.0,'11111222,11144222,11144222' 
DISL,ioos:station:DISL:BSCA:1,2015-10-03T03:00:00Z,30.3288,-87.8293,0.0,8.4,1.0,99.0,'11111222,11111222,11144222' 
DISL,ioos:station:DISL:BSCA:1,2015-10-03T03:30:00Z,30.3288,-87.8293,0.0,8.4,7.0,99.0,'11111222,11111222,11144222' 
DISL,ioos:station:DISL:BSCA:1,2015-10-03T04:00:00Z,30.3288,-87.8293,0.0,8.3,358.0,99.0,'11111222,11111222,11144222' 
DISL,ioos:station:DISL:BSCA:1,2015-10-03T04:30:00Z,30.3288,-87.8293,0.0,7.4,4.0,99.0,'11111222,11111222,11144222' 
DISL,ioos:station:DISL:BSCA:1,2015-10-03T05:00:00Z,30.3288,-87.8293,0.0,8.7,3.0,99.0,'11111222,11111222,11144222' 
DISL,ioos:station:DISL:BSCA:1,2015-10-03T05:30:00Z,30.3288,-87.8293,0.0,7.4,3.0,99.0,'11111222,11111222,11144222' 
DISL,ioos:station:DISL:BSCA:1,2015-10-03T06:00:00Z,30.3288,-87.8293,0.0,7.6,356.0,99.0,'11111222,11111222,11144222' 
DISL,ioos:station:DISL:BSCA:1,2015-10-03T06:30:00Z,30.3288,-87.8293,0.0,7.7,355.0,99.0,'11111222,11111222,11144222' 
DISL,ioos:station:DISL:BSCA:1,2015-10-03T07:00:00Z,30.3288,-87.8293,0.0,7.8,356.0,99.0,'11111222,11111222,11144222' 
DISL,ioos:station:DISL:BSCA:1,2015-10-03T07:30:00Z,30.3288,-87.8293,0.0,7.9,360.0,99.0,'11111222,11144222,11144222' 
DISL,ioos:station:DISL:BSCA:1,2015-10-03T08:00:00Z,30.3288,-87.8293,0.0,8.0,1.0,99.0,'11111222,11111222,11144222' 
DISL,ioos:station:DISL:BSCA:1,2015-10-03T08:30:00Z,30.3288,-87.8293,0.0,7.2,7.0,99.0,'11111222,11111222,11144222' 
DISL,ioos:station:DISL:BSCA:1,2015-10-03T09:00:00Z,30.3288,-87.8293,0.0,8.2,4.0,99.0,'11111222,11111222,11144222' 
DISL,ioos:station:DISL:BSCA:1,2015-10-03T09:30:00Z,30.3288,-87.8293,0.0,8.0,2.0,99.0,'11111222,11111222,11144222' 
DISL,ioos:station:DISL:BSCA:1,2015-10-03T10:00:00Z,30.3288,-87.8293,0.0,7.1,359.0,99.0,'11111222,11111222,11144222' 
DISL,ioos:station:DISL:BSCA:1,2015-10-03T10:30:00Z,30.3288,-87.8293,0.0,6.7,3.0,99.0,'11111222,11111222,11144222' 
DISL,ioos:station:DISL:BSCA:1,2015-10-03T11:00:00Z,30.3288,-87.8293,0.0,9.1,355.0,99.0,'11111222,11111222,11144222' 
DISL,ioos:station:DISL:BSCA:1,2015-10-03T11:30:00Z,30.3288,-87.8293,0.0,7.9,353.0,99.0,'11111222,11111222,11144222' 
DISL,ioos:station:DISL:BSCA:1,2015-10-03T12:00:00Z,30.3288,-87.8293,0.0,7.3,359.0,99.0,'11111222,11111222,11144222' 
DISL,ioos:station:DISL:BSCA:1,2015-10-03T12:30:00Z,30.3288,-87.8293,0.0,7.4,359.0,99.0,'11111222,11111222,11144222' 
DISL,ioos:station:DISL:BSCA:1,2015-10-03T13:00:00Z,30.3288,-87.8293,0.0,7.7,356.0,99.0,'11111222,11111222,11144222' 
DISL,ioos:station:DISL:BSCA:1,2015-10-03T13:30:00Z,30.3288,-87.8293,0.0,7.1,356.0,99.0,'11111222,11111222,11144222' 
DISL,ioos:station:DISL:BSCA:1,2015-10-03T14:00:00Z,30.3288,-87.8293,0.0,6.7,350.0,99.0,'11111222,11111222,11144222' 
DISL,ioos:station:DISL:BSCA:1,2015-10-03T14:30:00Z,30.3288,-87.8293,0.0,7.1,360.0,99.0,'11111222,11144222,11144222' 
DISL,ioos:station:DISL:BSCA:1,2015-10-03T15:00:00Z,30.3288,-87.8293,0.0,6.3,353.0,99.0,'11111222,11111222,11144222' 
DISL,ioos:station:DISL:BSCA:1,2015-10-03T15:30:00Z,30.3288,-87.8293,0.0,6.9,341.0,99.0,'11111222,11111222,11144222' 
DISL,ioos:station:DISL:BSCA:1,2015-10-03T16:00:00Z,30.3288,-87.8293,0.0,6.6,350.0,99.0,'11111222,11111222,11144222' 
DISL,ioos:station:DISL:BSCA:1,2015-10-03T16:30:00Z,30.3288,-87.8293,0.0,6.6,350.0,99.0,'11111222,11111222,11144222' 
DISL,ioos:station:DISL:BSCA:1,2015-10-03T17:00:00Z,30.3288,-87.8293,0.0,7.4,347.0,99.0,'11111222,11111222,11144222' 
DISL,ioos:station:DISL:BSCA:1,2015-10-03T17:30:00Z,30.3288,-87.8293,0.0,7.2,351.0,99.0,'11111222,11111222,11144222' 
DISL,ioos:station:DISL:BSCA:1,2015-10-03T18:00:00Z,30.3288,-87.8293,0.0,7.7,346.0,99.0,'11111222,11111222,11144222' 
DISL,ioos:station:DISL:BSCA:1,2015-10-03T18:30:00Z,30.3288,-87.8293,0.0,7.7,352.0,99.0,'11111222,11111222,11144222' 
DISL,ioos:station:DISL:BSCA:1,2015-10-03T19:00:00Z,30.3288,-87.8293,0.0,7.9,345.0,99.0,'11111222,11111222,11144222' 
DISL,ioos:station:DISL:BSCA:1,2015-10-03T19:30:00Z,30.3288,-87.8293,0.0,8.0,348.0,99.0,'11111222,11111222,11144222' 
DISL,ioos:station:DISL:BSCA:1,2015-10-03T20:00:00Z,30.3288,-87.8293,0.0,8.0,350.0,99.0,'11111222,11111222,11144222' 
DISL,ioos:station:DISL:BSCA:1,2015-10-03T20:30:00Z,30.3288,-87.8293,0.0,7.8,344.0,99.0,'11111222,11111222,11144222' 
DISL,ioos:station:DISL:BSCA:1,2015-10-03T21:00:00Z,30.3288,-87.8293,0.0,8.4,354.0,99.0,'11111222,11111222,11144222' 
DISL,ioos:station:DISL:BSCA:1,2015-10-03T21:30:00Z,30.3288,-87.8293,0.0,8.4,354.0,99.0,'11111222,11111222,11144222' 
DISL,ioos:station:DISL:BSCA:1,2015-10-03T22:00:00Z,30.3288,-87.8293,0.0,8.5,359.0,99.0,'11111222,11111222,11144222' 
DISL,ioos:station:DISL:BSCA:1,2015-10-03T22:30:00Z,30.3288,-87.8293,0.0,8.5,353.0,99.0,'11111222,11111222,11144222' 
DISL,ioos:station:DISL:BSCA:1,2015-10-03T23:00:00Z,30.3288,-87.8293,0.0,8.5,353.0,99.0,'11111222,11111222,11144222' 
DISL,ioos:station:DISL:BSCA:1,2015-10-03T23:30:00Z,30.3288,-87.8293,0.0,7.4,353.0,99.0,'11111222,11111222,11144222' 
DISL,ioos:station:DISL:BSCA:1,2015-10-04T00:00:00Z,30.3288,-87.8293,0.0,7.3,3.0,99.0,'11111222,11111222,11144222' 
DISL,ioos:station:DISL:BSCA:1,2015-10-04T00:30:00Z,30.3288,-87.8293,0.0,7.1,0.0,99.0,'11111222,11111222,11144222' 
DISL,ioos:station:DISL:BSCA:1,2015-10-04T01:00:00Z,30.3288,-87.8293,0.0,6.0,357.0,99.0,'11111222,11111222,11144222' 
DISL,ioos:station:DISL:BSCA:1,2015-10-04T01:30:00Z,30.3288,-87.8293,0.0,6.2,349.0,99.0,'11111222,11111222,11144222' 
DISL,ioos:station:DISL:BSCA:1,2015-10-04T02:00:00Z,30.3288,-87.8293,0.0,7.9,2.0,99.0,'11111222,11111222,11144222' 
DISL,ioos:station:DISL:BSCA:1,2015-10-04T02:30:00Z,30.3288,-87.8293,0.0,6.6,359.0,99.0,'11111222,11111222,11144222' 
DISL,ioos:station:DISL:BSCA:1,2015-10-04T03:00:00Z,30.3288,-87.8293,0.0,7.6,359.0,99.0,'11111222,11111222,11144222' 
DISL,ioos:station:DISL:BSCA:1,2015-10-04T03:30:00Z,30.3288,-87.8293,0.0,7.8,1.0,99.0,'11111222,11111222,11144222' 
DISL,ioos:station:DISL:BSCA:1,2015-10-04T04:00:00Z,30.3288,-87.8293,0.0,7.6,354.0,99.0,'11111222,11111222,11144222' 
DISL,ioos:station:DISL:BSCA:1,2015-10-04T04:30:00Z,30.3288,-87.8293,0.0,7.4,6.0,99.0,'11111222,11111222,11144222' 
DISL,ioos:station:DISL:BSCA:1,2015-10-04T05:00:00Z,30.3288,-87.8293,0.0,6.8,5.0,99.0,'11111222,11111222,11144222' 
DISL,ioos:station:DISL:BSCA:1,2015-10-04T05:30:00Z,30.3288,-87.8293,0.0,6.8,13.0,99.0,'11111222,11111222,11144222' 
DISL,ioos:station:DISL:BSCA:1,2015-10-04T06:00:00Z,30.3288,-87.8293,0.0,6.8,10.0,99.0,'11111222,11111222,11144222' 
DISL,ioos:station:DISL:BSCA:1,2015-10-04T06:30:00Z,30.3288,-87.8293,0.0,7.3,6.0,99.0,'11111222,11111222,11144222' 
DISL,ioos:station:DISL:BSCA:1,2015-10-04T07:00:00Z,30.3288,-87.8293,0.0,7.2,356.0,99.0,'11111222,11111222,11144222' 
DISL,ioos:station:DISL:BSCA:1,2015-10-04T07:30:00Z,30.3288,-87.8293,0.0,7.6,358.0,99.0,'11111222,11111222,11144222' 
DISL,ioos:station:DISL:BSCA:1,2015-10-04T08:00:00Z,30.3288,-87.8293,0.0,7.3,356.0,99.0,'11111222,11111222,11144222' 
DISL,ioos:station:DISL:BSCA:1,2015-10-04T08:30:00Z,30.3288,-87.8293,0.0,6.8,10.0,99.0,'11111222,11111222,11144222' 
DISL,ioos:station:DISL:BSCA:1,2015-10-04T09:00:00Z,30.3288,-87.8293,0.0,6.4,357.0,99.0,'11111222,11111222,11144222' 
DISL,ioos:station:DISL:BSCA:1,2015-10-04T09:30:00Z,30.3288,-87.8293,0.0,6.5,355.0,99.0,'11111222,11111222,11144222' 
DISL,ioos:station:DISL:BSCA:1,2015-10-04T10:00:00Z,30.3288,-87.8293,0.0,7.4,348.0,99.0,'11111222,11111222,11144222' 
DISL,ioos:station:DISL:BSCA:1,2015-10-04T10:30:00Z,30.3288,-87.8293,0.0,6.2,352.0,99.0,'11111222,11111222,11144222' 
DISL,ioos:station:DISL:BSCA:1,2015-10-04T11:00:00Z,30.3288,-87.8293,0.0,7.9,353.0,99.0,'11111222,11111222,11144222' 
DISL,ioos:station:DISL:BSCA:1,2015-10-04T11:30:00Z,30.3288,-87.8293,0.0,8.1,342.0,99.0,'11111222,11111222,11144222' 
DISL,ioos:station:DISL:BSCA:1,2015-10-04T12:00:00Z,30.3288,-87.8293,0.0,7.1,352.0,99.0,'11111222,11111222,11144222' 
DISL,ioos:station:DISL:BSCA:1,2015-10-04T12:30:00Z,30.3288,-87.8293,0.0,6.9,10.0,99.0,'11111222,11111222,11144222' 
DISL,ioos:station:DISL:BSCA:1,2015-10-04T13:00:00Z,30.3288,-87.8293,0.0,8.2,358.0,99.0,'11111222,11111222,11144222' 
DISL,ioos:station:DISL:BSCA:1,2015-10-04T13:30:00Z,30.3288,-87.8293,0.0,7.3,359.0,99.0,'11111222,11111222,11144222' 
DISL,ioos:station:DISL:BSCA:1,2015-10-04T14:00:00Z,30.3288,-87.8293,0.0,8.2,357.0,99.0,'11111222,11111222,11144222' 
DISL,ioos:station:DISL:BSCA:1,2015-10-04T14:30:00Z,30.3288,-87.8293,0.0,7.8,354.0,99.0,'11111222,11111222,11144222' 
DISL,ioos:station:DISL:BSCA:1,2015-10-04T15:00:00Z,30.3288,-87.8293,0.0,8.7,356.0,99.0,'11111222,11111222,11144222' 
DISL,ioos:station:DISL:BSCA:1,2015-10-04T15:30:00Z,30.3288,-87.8293,0.0,8.6,351.0,99.0,'11111222,11111222,11144222' 
DISL,ioos:station:DISL:BSCA:1,2015-10-04T16:00:00Z,30.3288,-87.8293,0.0,8.4,342.0,99.0,'11111222,11111222,11144222' 
DISL,ioos:station:DISL:BSCA:1,2015-10-04T16:30:00Z,30.3288,-87.8293,0.0,7.9,344.0,99.0,'11111222,11111222,11144222' 
DISL,ioos:station:DISL:BSCA:1,2015-10-04T17:00:00Z,30.3288,-87.8293,0.0,9.0,351.0,99.0,'11111222,11111222,11144222' 
DISL,ioos:station:DISL:BSCA:1,2015-10-04T17:30:00Z,30.3288,-87.8293,0.0,8.7,344.0,99.0,'11111222,11111222,11144222' 
DISL,ioos:station:DISL:BSCA:1,2015-10-04T18:00:00Z,30.3288,-87.8293,0.0,7.2,340.0,99.0,'11111222,11111222,11144222' 
DISL,ioos:station:DISL:BSCA:1,2015-10-04T18:30:00Z,30.3288,-87.8293,0.0,7.8,335.0,99.0,'11111222,11111222,11144222' 
DISL,ioos:station:DISL:BSCA:1,2015-10-04T19:00:00Z,30.3288,-87.8293,0.0,6.6,340.0,99.0,'11111222,11111222,11144222' 
DISL,ioos:station:DISL:BSCA:1,2015-10-04T19:30:00Z,30.3288,-87.8293,0.0,7.3,323.0,99.0,'11111222,11111222,11144222' 
DISL,ioos:station:DISL:BSCA:1,2015-10-04T20:00:00Z,30.3288,-87.8293,0.0,8.2,330.0,99.0,'11111222,11111222,11144222' 
DISL,ioos:station:DISL:BSCA:1,2015-10-04T20:30:00Z,30.3288,-87.8293,0.0,6.8,349.0,99.0,'11111222,11111222,11144222' 
DISL,ioos:station:DISL:BSCA:1,2015-10-04T21:00:00Z,30.3288,-87.8293,0.0,6.1,345.0,99.0,'11111222,11111222,11144222' 
DISL,ioos:station:DISL:BSCA:1,2015-10-04T21:30:00Z,30.3288,-87.8293,0.0,5.6,351.0,99.0,'11111222,11111222,11144222' 
DISL,ioos:station:DISL:BSCA:1,2015-10-04T22:00:00Z,30.3288,-87.8293,0.0,5.2,0.0,99.0,'11111222,11111222,11144222' 
DISL,ioos:station:DISL:BSCA:1,2015-10-04T22:30:00Z,30.3288,-87.8293,0.0,4.8,349.0,99.0,'11111222,11111222,11144222' 
DISL,ioos:station:DISL:BSCA:1,2015-10-04T23:00:00Z,30.3288,-87.8293,0.0,4.8,8.0,99.0,'11111222,11111222,11144222' 
DISL,ioos:station:DISL:BSCA:1,2015-10-04T23:30:00Z,30.3288,-87.8293,0.0,5.6,8.0,99.0,'11111222,11111222,11144222' 
DISL,ioos:station:DISL:BSCA:1,2015-10-05T00:00:00Z,30.3288,-87.8293,0.0,4.3,13.0,99.0,'11111222,11111222,11144222' 
DISL,ioos:station:DISL:BSCA:1,2015-10-05T00:30:00Z,30.3288,-87.8293,0.0,3.9,5.0,99.0,'11111222,11111222,11144222' 
DISL,ioos:station:DISL:BSCA:1,2015-10-05T01:00:00Z,30.3288,-87.8293,0.0,7.2,351.0,99.0,'11111222,11111222,11144222' 
DISL,ioos:station:DISL:BSCA:1,2015-10-05T01:30:00Z,30.3288,-87.8293,0.0,7.7,340.0,99.0,'11111222,11111222,11144222' 
DISL,ioos:station:DISL:BSCA:1,2015-10-05T02:00:00Z,30.3288,-87.8293,0.0,7.8,353.0,99.0,'11111222,11111222,11144222' 
DISL,ioos:station:DISL:BSCA:1,2015-10-05T02:30:00Z,30.3288,-87.8293,0.0,9.1,355.0,99.0,'11111222,11111222,11144222' 
DISL,ioos:station:DISL:BSCA:1,2015-10-05T03:00:00Z,30.3288,-87.8293,0.0,8.8,353.0,99.0,'11111222,11111222,11144222' 
DISL,ioos:station:DISL:BSCA:1,2015-10-05T03:30:00Z,30.3288,-87.8293,0.0,7.5,354.0,99.0,'11111222,11111222,11144222' 
DISL,ioos:station:DISL:BSCA:1,2015-10-05T04:00:00Z,30.3288,-87.8293,0.0,6.4,357.0,99.0,'11111222,11111222,11144222' 
DISL,ioos:station:DISL:BSCA:1,2015-10-05T04:30:00Z,30.3288,-87.8293,0.0,6.9,7.0,99.0,'11111222,11111222,11144222' 
DISL,ioos:station:DISL:BSCA:1,2015-10-05T05:00:00Z,30.3288,-87.8293,0.0,5.6,12.0,99.0,'11111222,11111222,11144222' 
DISL,ioos:station:DISL:BSCA:1,2015-10-05T05:30:00Z,30.3288,-87.8293,0.0,6.7,15.0,99.0,'11111222,11111222,11144222' 
DISL,ioos:station:DISL:BSCA:1,2015-10-05T06:00:00Z,30.3288,-87.8293,0.0,6.0,8.0,99.0,'11111222,11111222,11144222' 